SCP
0 0 0 0 0 0 0 0 0 0 1 1 1 1 1 1 2 2 3 3 4 4 4 4 3 3 2 3 5 8 8 7 6 6 6 6 6 6 5 4 2 2 2 3
0 0 0 0 0 0 0 0 0 0 1 1 1 1 1 1 2 2 2 3 3 4 4 3 3 3 2 3 5 8 9 7 5 5 5 6 6 7 7 6 4 3 3 3
0 0 0 0 0 0 0 0 0 0 1 1 1 1 1 2 2 2 2 2 3 3 3 3 3 3 2 3 4 7 8 6 4 5 5 6 7 8 8 8 6 4 3 3
0 0 0 0 0 0 0 0 0 0 0 1 1 1 1 2 3 2 2 2 2 3 3 3 3 3 3 4 5 6 6 4 4 5 5 6 7 8 7 6 5 3 2 2
0 0 0 0 0 0 0 0 0 0 0 0 0 0 1 2 3 3 3 2 2 3 3 4 4 4 5 5 5 5 5 4 4 4 5 5 5 5 4 4 3 2 2 2
0 0 0 0 0 0 0 0 0 0 0 0 0 0 1 2 3 3 2 2 2 2 2 3 3 3 4 5 5 5 4 5 4 4 4 4 4 4 4 4 3 2 2 2
0 0 0 0 0 0 0 0 0 0 1 0 0 0 1 2 3 3 2 2 2 2 2 2 2 2 3 3 4 5 5 5 5 4 4 4 4 4 4 4 4 3 3 3
0 0 0 0 0 0 0 0 0 0 0 0 0 1 1 2 2 2 2 2 2 2 3 3 3 2 2 3 3 4 4 5 5 4 5 5 5 5 5 5 4 3 3 3
0 0 0 0 0 0 0 0 0 0 0 0 0 1 2 2 2 2 1 2 2 2 3 3 3 2 2 2 2 3 3 4 4 4 4 4 5 5 5 5 4 4 4 4
0 0 0 0 0 0 0 0 0 0 0 0 0 1 1 2 2 2 2 2 2 2 2 3 2 2 2 2 2 2 2 3 3 3 3 3 4 4 5 5 4 4 4 4
0 0 0 1 1 1 1 1 0 0 0 0 0 1 1 1 2 2 2 1 2 2 2 2 2 2 1 1 2 2 2 3 3 4 4 4 4 4 4 4 4 4 5 4
0 0 0 1 1 1 1 1 1 1 0 0 0 1 1 1 2 2 2 2 2 2 2 2 2 2 2 1 1 2 2 3 3 4 5 5 5 5 4 4 4 4 4 4
1 1 1 1 1 1 1 1 1 1 1 0 1 1 1 1 2 2 2 2 2 3 3 3 2 2 2 2 2 2 2 2 3 3 4 5 5 5 5 5 4 4 3 3
1 1 1 1 1 1 1 1 1 1 1 1 1 1 1 2 2 2 2 2 3 4 4 3 3 3 2 2 2 2 2 2 2 3 3 4 4 4 4 5 5 4 3 2
1 1 1 1 1 1 0 0 0 1 1 1 1 1 1 1 2 2 2 2 3 4 4 4 4 3 2 2 2 2 2 2 2 3 3 3 3 2 3 4 5 5 3 2
1 1 1 1 1 1 1 0 1 1 1 1 1 1 1 1 2 2 3 3 3 3 3 3 4 3 2 2 3 3 3 3 3 3 3 3 2 2 2 3 4 5 3 2
1 1 1 1 1 1 1 1 1 1 1 1 1 1 1 2 2 3 3 3 2 2 2 2 3 3 3 3 3 3 3 4 4 4 3 3 2 2 2 2 3 3 3 2
1 1 1 1 1 1 1 1 1 1 1 1 1 1 1 2 2 2 2 2 2 2 2 2 2 2 2 2 3 3 3 4 3 3 3 2 1 1 2 2 2 2 2 2
1 1 1 1 1 1 1 1 1 1 1 1 1 1 1 1 1 1 1 2 2 2 2 2 2 2 2 2 2 2 3 3 3 2 2 2 1 1 1 2 2 2 2 2
1 1 1 1 1 1 1 1 1 1 1 1 1 1 1 1 1 2 2 2 3 3 2 2 2 2 2 2 2 2 2 2 2 2 2 1 1 1 2 2 2 2 2 2
1 1 1 1 1 1 1 1 1 1 1 1 1 1 1 1 1 2 2 3 3 3 2 2 2 2 2 2 2 1 1 1 1 1 1 1 1 1 1 2 3 3 2 2
1 1 1 1 1 1 1 1 1 1 1 1 1 1 2 2 1 1 3 4 4 3 2 2 2 2 2 2 2 1 1 1 1 1 1 1 1 1 1 2 3 3 3 3
0 1 1 1 1 1 1 2 2 2 2 2 2 2 2 2 1 1 3 4 4 3 2 2 1 1 1 2 2 1 1 1 1 1 2 2 1 1 1 2 2 3 3 3
0 0 1 1 1 1 1 1 2 2 2 2 2 2 3 2 1 1 3 4 4 3 2 1 1 1 1 1 1 1 1 1 1 1 2 2 2 1 1 1 2 2 2 3
0 0 0 0 1 1 1 1 2 2 2 3 3 3 3 2 2 2 3 3 3 2 1 1 1 1 1 1 1 1 1 1 1 1 1 2 2 1 1 1 1 1 1 1
0 0 0 0 1 1 1 1 1 2 2 3 3 3 3 2 2 2 2 2 2 1 1 1 1 1 1 1 1 1 1 1 1 1 1 1 2 2 2 1 1 1 0 0
Wind_Speed
10 11 12 11 11 9 8 9 8 6 4 7 8 8 6 4 6 6 6 6 6 6 6 6 7 7 7 7 8 9 8 7 6 5 5 5 4 4 4 3 4 4 4 4
10 14 11 9 9 10 10 10 9 6 4 6 7 8 6 5 6 6 6 6 6 5 6 6 6 7 8 8 8 9 9 8 7 5 4 3 3 3 3 3 3 4 4 4
15 8 7 9 11 11 11 11 9 7 6 8 9 9 7 5 5 6 6 6 6 6 6 6 7 7 7 8 8 7 8 8 7 6 5 4 4 3 4 4 3 4 4 5
13 9 9 12 12 12 11 9 9 9 10 8 9 9 6 5 5 5 6 6 6 6 6 7 7 7 7 7 7 7 8 8 7 7 5 6 4 4 3 3 3 3 4 4
10 10 10 13 12 11 9 7 9 10 11 11 10 11 6 6 6 5 5 6 6 6 7 7 7 7 6 6 6 7 7 7 7 6 6 6 5 4 3 3 3 3 4 4
12 9 10 11 10 10 8 8 9 10 10 12 10 10 7 4 5 5 5 5 5 6 6 7 7 6 6 5 6 6 7 6 6 7 7 6 5 4 4 4 4 4 4 4
12 12 11 10 11 10 10 9 7 9 10 8 5 8 6 0 2 3 3 4 5 6 6 7 7 7 6 6 5 6 7 6 6 6 6 5 5 5 5 5 4 4 4 4
11 11 11 10 12 9 11 13 10 8 8 6 5 8 1 1 1 1 2 3 5 6 6 7 7 7 6 6 5 5 6 6 6 5 5 5 5 4 4 4 4 4 3 3
7 7 7 9 9 11 11 12 10 11 11 10 7 5 3 2 2 2 3 4 5 6 6 6 6 6 6 6 5 5 5 5 5 5 5 4 4 3 3 3 4 4 3 3
6 7 7 7 9 11 11 9 8 10 9 10 8 7 4 4 5 4 3 4 5 6 6 6 6 5 5 5 5 4 4 4 5 5 5 4 4 4 3 3 3 2 3 3
8 8 7 9 10 10 10 11 10 9 9 9 8 4 2 1 2 3 3 3 4 5 5 6 5 5 5 4 4 4 4 4 4 4 4 4 4 3 3 3 3 3 3 4
7 7 8 9 7 7 10 10 11 10 9 10 9 3 2 2 2 0 2 3 3 3 4 4 5 5 5 5 4 4 4 4 4 4 4 4 3 3 3 3 3 3 3 4
4 6 8 9 10 9 10 10 11 10 9 9 10 3 4 2 2 2 2 3 3 3 4 4 4 4 4 4 4 4 4 3 4 4 4 4 3 3 3 3 3 3 3 3
6 7 9 9 5 6 9 10 10 11 10 10 10 6 2 0 1 1 1 1 2 3 4 4 4 4 3 3 3 3 3 4 4 4 4 4 4 3 3 3 2 3 3 3
4 8 9 10 8 8 9 10 10 12 13 11 8 7 3 2 1 1 2 2 2 3 3 4 4 3 3 3 3 3 3 3 4 4 4 4 4 3 3 3 3 3 3 3
3 6 8 9 8 7 8 10 11 11 10 10 8 5 2 1 1 3 3 3 3 2 3 3 3 3 3 3 3 3 3 3 4 4 4 4 4 4 3 3 3 3 3 3
4 6 7 8 8 8 9 7 8 7 6 7 7 3 0 1 1 3 3 2 2 2 2 2 2 3 3 3 3 4 3 3 3 3 3 4 4 3 3 3 3 3 3 3
6 7 6 5 7 9 1 3 2 2 1 3 3 1 1 0 1 2 3 2 1 1 1 2 2 2 2 3 3 3 3 3 3 4 3 4 4 4 3 3 2 3 2 3
7 7 6 5 7 5 3 2 2 3 2 1 2 2 0 1 3 4 4 3 2 1 1 1 1 1 2 3 3 3 3 3 3 3 3 4 4 3 3 3 3 2 2 3
5 7 7 6 7 5 3 4 4 5 4 3 2 2 1 2 3 2 3 2 3 2 2 1 1 2 2 2 3 3 3 3 2 1 2 2 3 3 3 2 2 2 2 3
4 5 6 6 6 0 6 5 4 5 2 4 3 1 1 1 2 2 2 2 2 3 2 2 2 2 2 2 2 2 1 1 0 1 1 1 2 3 3 2 2 3 3 3
3 3 4 5 5 1 7 3 2 4 4 3 3 1 1 2 3 3 3 3 3 3 3 3 2 2 2 1 1 1 1 1 0 0 1 1 1 2 2 2 2 3 3 3
2 4 3 2 2 5 4 4 4 3 2 3 3 2 2 2 2 3 3 3 3 3 3 2 2 2 2 1 1 0 1 1 1 0 0 0 1 1 1 2 3 3 3 3
1 3 2 1 2 3 3 5 5 5 4 4 4 3 3 3 3 3 2 2 2 3 2 2 2 2 2 1 1 1 1 1 1 0 0 0 1 1 1 2 3 2 2 3
4 2 2 2 1 1 3 4 5 5 5 5 5 5 4 3 2 2 3 3 2 2 2 2 2 1 1 1 1 1 1 0 1 1 1 1 1 1 1 2 2 3 2 2
3 3 2 1 2 1 2 4 4 4 4 5 5 4 3 3 2 3 3 3 2 2 2 2 2 1 1 1 1 1 1 0 1 1 1 2 2 2 2 2 2 1 2 1
Wind_Direction
198 218 221 220 231 258 261 257 249 245 240 247 250 255 256 238 231 229 216 208 203 195 181 173 175 177 177 179 181 182 184 178 182 181 185 183 184 184 181 181 178 188 199 192
205 223 228 232 234 243 250 249 246 242 236 254 255 259 256 242 235 233 223 213 208 193 177 169 169 175 178 179 185 185 186 182 187 183 190 191 187 184 184 185 176 194 200 202
225 228 216 227 228 234 241 250 252 255 250 242 253 250 233 218 224 221 222 219 211 200 186 175 177 182 181 183 187 187 183 183 186 178 180 174 175 185 181 185 185 194 198 198
237 233 227 227 227 234 241 244 256 251 252 247 247 265 230 215 216 215 219 217 211 197 185 178 179 184 187 186 183 180 179 179 179 180 184 183 187 187 186 191 181 185 192 196
226 220 223 229 227 231 248 252 252 253 256 262 247 261 244 208 222 213 216 221 210 193 183 179 180 178 176 175 175 169 170 173 175 179 180 189 196 195 186 186 177 195 185 191
242 226 226 235 234 231 237 237 242 243 246 248 246 256 257 221 236 225 211 212 203 188 180 176 173 166 158 158 165 166 168 171 176 184 188 193 196 198 194 194 191 195 185 185
226 219 215 224 223 210 219 231 233 230 228 243 230 249 260 310 260 255 228 204 193 179 173 169 167 162 158 159 160 164 166 168 174 184 191 196 202 202 203 204 197 206 197 188
225 217 202 209 225 222 218 232 246 257 253 256 235 245 258 69 202 235 234 197 177 171 170 169 167 165 165 165 164 166 171 176 180 187 193 201 206 210 207 205 209 206 209 195
237 227 190 202 221 230 220 229 251 266 267 261 243 236 215 185 200 203 200 185 174 170 172 171 167 168 168 168 169 174 176 181 188 191 192 196 197 211 209 202 211 214 206 191
259 242 211 195 211 219 240 239 235 246 253 256 249 246 246 209 216 203 196 182 172 168 173 172 171 168 168 170 169 175 175 185 190 189 194 190 192 199 201 210 207 215 202 194
251 244 221 204 216 220 214 220 236 248 256 261 259 256 21 305 235 207 188 173 169 168 170 173 173 165 162 160 162 171 177 184 185 185 188 190 190 193 200 208 205 207 203 192
232 250 241 227 219 233 227 232 233 242 248 255 267 264 60 16 358 324 149 149 156 155 160 165 165 157 158 160 165 170 175 182 185 180 179 180 181 184 195 194 197 198 199 202
231 239 235 218 201 207 223 228 234 242 252 252 254 233 108 61 58 65 108 137 151 152 151 155 155 156 162 161 167 173 178 179 182 175 168 165 170 177 186 191 193 194 196 202
257 246 251 251 255 233 233 234 235 238 244 250 256 261 236 300 60 68 108 149 158 156 157 163 161 161 158 157 168 178 182 176 176 172 170 171 175 180 188 196 199 206 205 207
255 247 251 263 271 254 247 244 238 238 248 258 265 263 269 275 264 154 153 150 152 155 167 172 167 162 158 156 167 175 179 179 181 181 181 179 174 179 186 191 201 213 217 215
254 254 251 252 250 245 248 243 239 242 247 250 258 259 327 347 162 142 141 148 159 163 169 176 176 167 168 172 179 177 175 177 187 192 189 183 180 183 185 190 198 209 214 222
239 243 248 245 241 244 245 253 244 239 250 259 261 284 184 211 182 150 142 148 153 171 172 173 178 177 177 184 190 187 180 181 187 192 189 184 185 189 193 197 198 205 213 222
242 246 245 242 232 234 128 44 320 262 304 325 319 353 239 224 114 134 125 121 109 125 160 166 179 186 182 180 182 182 178 183 186 187 186 185 191 190 193 202 206 214 222 228
230 238 238 232 231 232 139 58 313 252 232 4 329 315 162 157 160 120 67 50 55 85 88 130 162 171 167 163 162 177 184 178 178 179 190 191 196 197 202 205 208 221 232 240
195 228 242 235 240 240 56 8 317 252 212 51 347 307 216 196 221 120 53 38 42 60 71 77 113 132 147 157 171 186 182 177 182 183 196 186 193 200 209 215 220 227 234 239
199 213 236 242 240 162 28 340 281 238 21 10 346 329 259 267 355 78 84 64 59 57 64 75 96 100 114 142 158 169 156 161 176 183 179 182 197 210 211 220 229 236 239 242
273 246 226 239 234 149 22 2 354 5 359 1 359 7 49 55 64 86 89 74 62 48 50 63 87 80 81 109 130 127 73 359 338 186 167 184 224 239 214 222 236 244 249 239
315 332 323 332 50 65 52 37 33 14 14 20 15 29 78 75 67 75 77 65 54 43 45 52 77 81 65 61 79 55 358 325 309 154 207 256 262 259 252 244 240 240 239 252
346 344 282 248 112 85 63 39 31 31 34 31 32 38 58 67 66 65 64 61 52 42 56 68 74 74 56 28 10 21 352 319 308 331 299 255 245 257 257 265 265 268 270 272
320 301 267 240 59 68 49 28 26 38 41 42 42 43 42 49 58 56 43 34 29 36 57 65 71 68 70 48 21 41 52 32 350 337 315 295 278 286 282 279 299 289 307 314
308 303 284 315 24 348 10 11 10 31 37 34 38 37 32 29 36 37 30 23 21 26 42 43 33 46 50 49 52 57 67 38 350 329 310 302 300 297 284 286 289 339 276 222